Volver al catálogo

ONEWEB-0012

ActivoComunicacionesPO
NORAD 44057·PAYLOAD·🇬🇧 United Kingdom

Lanzado Feb 27, 2019 desde Guiana Space Centre

Loading…

Próximos Pases (próximas 24 horas)

TLE

ActualizadoSource: CelesTrak SupGP

Época: Sep 14, 2026, 20:37 UTC

1 44057C 19010A   26257.85920556  .00000825  00000+0  21596-2 0  2579
2 44057  87.9147 210.9763 0002521  87.3832 299.3459 13.16596525    12

Sigue ONEWEB-0012 en tiempo real con AllMySat

Download on the App Store